If you wish to contribute or participate in the discussions about articles you are invited to join SKYbrary as a registered user

 Actions

Yokota Air Base

From SKYbrary Wiki

RJTY
Airport
ICAO: RJTY – IATA: OKO
Summary
Name Yokota Air Base
Region Asia and Pacific
Territory Japan JP.gif
Location Fussa, Kantō
Serving Yokota
Elevation 141.122 m
463 ft
463 ft141.122 m
Type large airport
Coordinates 35° 44' 54.57" N, 139° 20' 54.54" E
Runways
Designator Length Width Surface ROPS
18/36 3353 m11,000.656 ft
61 m200.131 ft
CON yes/yes


METAR
Observation RJTY 181456Z AUTO 33007KT 10SM OVC070 03/00 A2995 RMK AO2 SLP153 60000 T00340003 400550003 58004 FZRANO $
Station Yokota Ab
Date/Time 18 January 2020 14:56:00
Wind direction 330°
Wind speed 07 kts
Lowest cloud amount overcast
Temperature 3.4°C
Dew point 0.3°C
Humidity 80%
QNH hPa
Weather condition n/a

Yokota Air Base is a United States Air Force base in the city of Fussa, in the Western Tokyo area, Japan.

Climatology

Humid Sub-tropical climate (Köppen climate classification Cfa)

Maps

Terrain

Loading map...

Airport Layout

Loading map...


Accidents & Serious Incidents at or in vicinity of RJTY

None on SKYbrary